Showing default

ETV-A1, 51060

Orbit data source: Space-Track

ETV-A1, 51060 is a payload satellite owned by Sen (UK) in SSO that was launched on Thu, 13 Jan 2022 UTC via an FALCON 9 launch vehicle from the Air Force Eastern Test Range (AFETR). Payload-class satellites include a variety of spacecraft equipped with specific instruments for various scientific and technological missions. These include communications satellites like Starlink; space stations such as the ISS; scientific satellites like the Hubble; Earth observation satellites from companies like Planet Labs, Umbra, and HawkEye 360; GPS; miniature CubeSats for education and research; and military/defense satellites.

Loading next visibility...
Identifier
51060, 2022-002CE
Orbit
SSO
Country
Flag of UKUK
Related business
Manufacturer
NanoAvionics
Mission
Operational Commercial Imaging
Bus & Motor
CUBESAT 16U, Unknown motor
Mass
~20 kg wet, ~20 kg dry
Launch date (UTC)
2022-01-13 (4 years ago)
Launch vehicle
FALCON 9
Launch site
Air Force Eastern Test Range (AFETR)
Object type
Payload
Rocket body
Debris
Shape & HBR
Box + 2 Pan, 0.2 m
Radar Cross Section
0.100 m², Medium (>0.1 m² and < 1m²)

Expand to show TLE details & history
Last TLE update: 6 hours ago

TLE from 6 hours ago
0 ETV-A1
1 51060U 22002CE  26169.24776443  .00008451  00000-0  20899-3 0  9998
2 51060  97.2874 235.5499 0004413 359.1877   0.9362 15.40699609246001
Epoch: 2026-06-18T05:56Z
TLE epoch observation values (Epoch: 2026-06-18T05:56:46.846Z)
Latitude
-0.00001°
Longitude
-120.13912°
Altitude
444.154 km
Speed
7.647 km/s
True Right ascension
15h 42m 11s
True Declination
0° 00' 00"
Sunlit
Object was in full shadow at epoch
Visualization orbit readout
Latitude
Unknown
Longitude
Unknown
Altitude
Unknown
Speed
Unknown
Apparent Right ascension
Unknown
Apparent Declination
Unknown
Sunlit
N/A
Visualization observer readout
Local Sidereal Time
22:48:40
Azimuth
Unknown
Elevation
Unknown
Doppler factor
Unknown
Orbital elements
Apogee altitude
443.986 km
Perigee altitude
437.967 km
Semi-major axis
6,819.114 km
Eccentricity
0.00044
Inclination
97.2874°
RAAN
235.5499°
Arg. of periapsis
359.1877°
True anomaly
0.93703°
Mean anomaly
0.9362°
Eccentric anomaly
0.93661°
Mean motion
3.85435 °/min
Orbital period
93.4 mins
BSTAR
0.00020899
Loading maneuver chart data...
Computing Atmospheric mass density...

Documentation

Showing up to 5 results
|